Regional Weather Roundup
Issued by NWS New Orleans/Baton Rouge, LA

Home | Current Version | Previous Version | Text Only | Print | Product List | Glossary On
Versions: 1 2 3 4 5 6 7 8 9 10 11 12 13 14 15 16 17 18 19 20 21 22 23 24 25 26 27 28 29 30 31 32 33 34 35 36 37 38 39 40 41 42 43 44 45 46 47 48 49 50
000
ASUS44 KLIX 231013
RWRLIX
NEW ORLEANS REGIONAL WEATHER ROUNDUP
NATIONAL WEATHER SERVICE NEW ORLEANS LA
400 AM CST THU FEB 23 2017

NOTE: "FAIR" INDICATES FEW OR NO CLOUDS BELOW 12,000 FEET WITH NO
      SIGNIFICANT WEATHER AND/OR OBSTRUCTIONS TO VISIBILITY.
      SKY/WX - SKY CONDITION AND SIGNIFICANT WEATHER.
      TMP - AIR TEMPERATURE.     DP    - DEWPOINT TEMPERATURE.
      RH  - RELATIVE HUMIDITY.   PRES  - PRESSURE.
      HI  - HEAT INDEX.          WCI   - WIND CHILL INDEX.

*  THESE STATIONS ARE NOT NWS OR FAA STATIONS AND ARE NOT UNDER
   NWS QUALITY CONTROL.

LAZ038-040-048-061>063-065>067-069-231100-
SOUTHEAST LOUISIANA

CITY           SKY/WX    TMP DP  RH WIND       PRES   REMARKS
N.O. AUDUBON   NOT AVBL
N.O. INTL ARPT CLEAR     58  56  93 CALM      29.79S
N.O. LAKEFRONT CLEAR     64  60  87 E5        29.79F
N.O. DOWNTOWN*   N/A     64  57  78 CALM      29.79F
RESERVE*         N/A     58  56  94 CALM      29.79F FOG
SLIDELL        CLEAR     51  49  92 CALM      29.79S
BATON ROUGE    CLEAR     54  52  93 E5        29.78F
BOOTHVILLE     CLEAR     60  59  96 N5        29.79F
BELLE CHASSE   CLEAR     52  51  97 CALM      29.78F
BOGALUSA*        N/A     51  48  90 CALM      29.82S
GALLIANO*      SUNNY     52  50  92 CALM      29.79S FOG
NEW ROADS*       N/A     52  52 100 CALM      29.79S FOG
GONZALES*        N/A     54  54 100 CALM      29.79R FOG
HAMMOND*       CLEAR     50  48  93 CALM      29.80S
HOUMA*         FOG       55  54  99 CALM      29.79S VSB 1
PORT FOURCHON* NOT AVBL

$$

MSZ070-080>082-231100-
SOUTHERN MISSISSIPPI

CITY           SKY/WX    TMP DP  RH WIND       PRES   REMARKS
MCCOMB         CLEAR     50  48  93 CALM      29.80S
GULFPORT       CLEAR     56  55  97 CALM      29.79S
BILOXI         CLEAR     59  57  92 NE6       29.78F
PASCAGOULA     CLEAR     57  54  89 CALM      29.80S

$$

COASTAL OBSERVATIONS
LAKE AND NEARSHORE STATIONS

STATION/POSITION TIME  TEMP    WIND        PRES    WAVE
                       AIR SEA DIR/SP/G            HT/PER
                 (UTC) (F)     (DEG/KT/KT) (MB)    (FT/S)
PASCAGOULA       0942   59     360/  7/  9 1008.4
WAVELAND YACHT   0942   61 66   30/  7/  8 1008.4
GRAND ISLE       0942   65 68   10/  4/  5 1008.7
SOUTHWEST PASS   0942          350/  9/ 10   N/A
NEW CANAL        0942   63 67   70/  3/  3 1007.9
SHELL BEACH      0942   65 68   10/  8/  9 1008.9

OFFSHORE STATIONS

STATION/POSITION TIME  TEMP    WIND        PRES    WAVE
                       AIR SEA DIR/SP/G            HT/PER
                 (UTC) (F)     (DEG/KT/KT) (MB)    (FT/S)

$$




USA.gov is the U.S. government's official web portal to all federal, state and local government web resources and services.